Weather History for Ocala, FL

Change the Weather History Date:

Friday, January 18, 2013

  Actual Average Record
Temperature  
Mean Temperature 48 °F -  
Max Temperature 62 °F 66 °F 80 °F (2001)
Min Temperature 33 °F 41 °F 28 °F (2003)
Degree Days  
Heating Degree Days 18    
Moisture  
Dew Point 33 °F    
Average Humidity 61    
Maximum Humidity 75    
Minimum Humidity 48    
Precipitation  
Precipitation 0.00 in - - ()
Sea Level Pressure  
Sea Level Pressure 30.28 in    
Wind  
Wind Speed 6 mph (North)    
Max Wind Speed 14 mph    
Max Gust Speed 23 mph    
Visibility 10 miles    
Events      
Averages and records for this station are not official NWS values.
T = Trace of Precipitation, MM = Missing Value Source: NWS Daily Summary

Daily Weather History Graph

Daily Weather History Graph

Search for Another Location

Airport:

Trip Planner

Search our weather history database for the weather conditions in past years. The results will help you decide how hot, cold, wet, or windy it might be!

Date:

Astronomy

Jan. 18, 2013 Rise Set
Actual Time 7:23 AM EST 5:55 PM EST
Civil Twilight 6:57 AM EST 6:21 PM EST
Nautical Twilight 6:28 AM EST 6:50 PM EST
Astronomical Twilight 6:00 AM EST 7:18 PM EST
Moon 11:39 AM EST 12:08 AM EST
Length of Visible Light 11h 23m
Length of Day
10h 32m
Waxing Crescent, 47% of the Moon is Illuminated
Jan 18
Waxing Crescent
Jan 18
First Quarter
Jan 26
Full
Feb 3
Last Quarter
Feb 10
New

Hourly Weather History & Observations

Time (EST) Temp. Windchill Dew Point Humidity Pressure Visibility Wind Dir Wind Speed Gust Speed Precip Events Conditions
12:15 AM 42.8 °F 38.0 °F 26.6 °F 53% 30.19 in 10.0 mi NW 8.1 mph - N/A   Clear
12:35 AM 41.0 °F 37.1 °F 26.6 °F 57% 30.19 in 10.0 mi NNW 5.8 mph - N/A   Clear
12:55 AM 41.0 °F 36.4 °F 26.6 °F 57% 30.19 in 10.0 mi NNW 6.9 mph - N/A   Clear
1:15 AM 41.0 °F 37.1 °F 26.6 °F 57% 30.20 in 10.0 mi NNW 5.8 mph - N/A   Clear
1:35 AM 39.2 °F 37.0 °F 26.6 °F 61% 30.21 in 10.0 mi NW 3.5 mph - N/A   Clear
1:55 AM 37.4 °F - 26.6 °F 65% 30.21 in 10.0 mi Calm Calm - N/A   Clear
2:15 AM 37.4 °F - 26.6 °F 65% 30.21 in 10.0 mi Calm Calm - N/A   Clear
2:35 AM 37.4 °F 32.1 °F 26.6 °F 65% 30.22 in 10.0 mi NNW 6.9 mph - N/A   Clear
2:55 AM 37.4 °F 33.8 °F 26.6 °F 65% 30.22 in 10.0 mi NNW 4.6 mph - N/A   Clear
3:15 AM 37.4 °F 34.9 °F 26.6 °F 65% 30.22 in 10.0 mi NW 3.5 mph - N/A   Clear
3:35 AM 35.6 °F 32.8 °F 26.6 °F 70% 30.22 in 10.0 mi NW 3.5 mph - N/A   Partly Cloudy
3:55 AM 35.6 °F 31.7 °F 26.6 °F 70% 30.23 in 10.0 mi NNW 4.6 mph - N/A   Mostly Cloudy
4:15 AM 37.4 °F 34.9 °F 28.4 °F 70% 30.23 in 10.0 mi NW 3.5 mph - N/A   Overcast
4:35 AM 35.6 °F - 26.6 °F 70% 30.23 in 10.0 mi Calm Calm - N/A   Mostly Cloudy
4:55 AM 35.6 °F - 26.6 °F 70% 30.23 in 10.0 mi Calm Calm - N/A   Partly Cloudy
5:15 AM 35.6 °F 32.8 °F 26.6 °F 70% 30.24 in 10.0 mi NNW 3.5 mph - N/A   Clear
5:35 AM 35.6 °F - 26.6 °F 70% 30.25 in 10.0 mi Calm Calm - N/A   Clear
5:55 AM 33.8 °F - 26.6 °F 75% 30.26 in 10.0 mi Calm Calm - N/A   Mostly Cloudy
6:15 AM 37.4 °F 34.9 °F 28.4 °F 70% 30.27 in 10.0 mi NNW 3.5 mph - N/A   Overcast
6:35 AM 37.4 °F 34.9 °F 28.4 °F 70% 30.28 in 10.0 mi North 3.5 mph - N/A   Overcast
6:50 AM 37.4 °F 34.9 °F 28.4 °F 70% 30.28 in 10.0 mi North 3.5 mph - N/A   Overcast
7:50 AM 39.2 °F - 30.2 °F 70% 30.29 in 10.0 mi Calm Calm - N/A   Overcast
8:50 AM 46.4 °F 41.9 °F 33.8 °F 62% 30.31 in 10.0 mi North 9.2 mph - N/A   Overcast
9:50 AM 51.8 °F - 35.6 °F 54% 30.33 in 10.0 mi NNE 11.5 mph 20.7 mph N/A   Overcast
10:50 AM 55.4 °F - 39.2 °F 54% 30.33 in 10.0 mi NNE 10.4 mph 20.7 mph N/A   Scattered Clouds
11:50 AM 60.8 °F - 41.0 °F 48% 30.31 in 10.0 mi NNE 10.4 mph 19.6 mph N/A   Mostly Cloudy
12:50 PM 62.6 °F - 42.8 °F 48% 30.29 in 10.0 mi ENE 10.4 mph 20.7 mph N/A   Mostly Cloudy
1:50 PM 62.6 °F - 46.4 °F 55% 30.28 in 10.0 mi NE 9.2 mph 19.6 mph N/A   Mostly Cloudy
2:50 PM 62.6 °F - 44.6 °F 52% 30.28 in 10.0 mi NE 9.2 mph 18.4 mph N/A   Mostly Cloudy
3:50 PM 62.6 °F - 44.6 °F 52% 30.29 in 10.0 mi NE 13.8 mph 23.0 mph N/A   Mostly Cloudy
4:50 PM 60.8 °F - 42.8 °F 52% 30.31 in 10.0 mi NE 10.4 mph 18.4 mph N/A   Mostly Cloudy
6:50 PM 53.6 °F - 39.2 °F 58% 30.35 in 10.0 mi NNE 9.2 mph 16.1 mph N/A   Partly Cloudy
7:55 PM 51.8 °F - 37.4 °F 58% 30.36 in 10.0 mi NNE 8.1 mph 17.3 mph N/A   Clear
8:15 PM 51.8 °F - 37.4 °F 58% 30.36 in 10.0 mi North 13.8 mph 18.4 mph N/A   Clear
8:35 PM 51.8 °F - 35.6 °F 54% 30.36 in 10.0 mi NNE 12.7 mph 18.4 mph N/A   Clear
8:55 PM 51.8 °F - 35.6 °F 54% 30.36 in 10.0 mi North 11.5 mph 17.3 mph N/A   Clear
9:15 PM 51.8 °F - 35.6 °F 54% 30.36 in 10.0 mi North 10.4 mph 16.1 mph N/A   Clear
9:35 PM 51.8 °F - 35.6 °F 54% 30.36 in 10.0 mi NNE 9.2 mph 16.1 mph N/A   Clear
9:55 PM 51.8 °F - 35.6 °F 54% 30.36 in 10.0 mi NNE 9.2 mph 18.4 mph N/A   Partly Cloudy
10:35 PM 50.0 °F - 37.4 °F 62% 30.35 in 10.0 mi North 11.5 mph - N/A   Clear
10:55 PM 50.0 °F - 37.4 °F 62% 30.34 in 10.0 mi North 10.4 mph 17.3 mph N/A   Clear
11:15 PM 48.2 °F - 37.4 °F 66% 30.33 in 10.0 mi NNE 9.2 mph - N/A   Clear
11:35 PM 48.2 °F - 37.4 °F 66% 30.33 in 10.0 mi NNE 6.9 mph - N/A   Clear
11:55 PM 48.2 °F - 37.4 °F 66% 30.33 in 10.0 mi NNE 9.2 mph 16.1 mph N/A   Clear